INTELSAT 33E DEB, 61994

Orbit data source: Space-Track

INTELSAT 33E DEB, 61994 is space debris in GEO originally from a launch on Wed, 24 Aug 2016 UTC launched from the French Guiana (FRGUI). Debris objects in space refer to the collection of defunct objects orbiting the Earth. Examples of debris include non-operational satellites, rocket bodies, and fragments generated from explosions, collisions, or faulty payload assembly.

Loading next visibility...
Identifier
61994, 2016-053L
Orbit
GEO
Last TLE update
2 days ago
Origin
Manufacturer
Boeing/ES
Mission
Spacecraft
Bus & Motor
Unknown
Mass
Unknown
Launch date (UTC)
2016-08-24 (9 years ago)
Launch vehicle
Unknown
Launch site
French Guiana (FRGUI)
Object type
Payload
Rocket body
Debris
Shape & HBR
Unknown
Radar Cross Section
RCS unknown

Expand to show TLE details & history

TLE from 2 days ago
0 INTELSAT 33E DEB
1 61994U 16053L   25138.68186760 -.00000003  00000-0  00000-0 0  9999
2 61994   0.5696  94.5146 0024601 197.9396  67.2950  1.00518061  2130
Epoch: 2025-05-18T16:21Z
TLE epoch observation values (Epoch: 2025-05-18T16:21:53.36Z)
Latitude
-0.55247°
Longitude
-122.07776°
Altitude
35,677.904 km
Speed
3.08 km/s
True Right ascension
23h 59m 59s
True Declination
0° 33' 07"
Sunlit
Object was in daylight at epoch
Visualization orbit readout
Latitude
-0.55389°
Longitude
-110.76603°
Altitude
35,697.22 km
Speed
3.079 km/s
Apparent Right ascension
00h 37m 23s
Apparent Declination
-6° 49' 57"
Sunlit
Object is in daylight
Visualization observer readout
Local Sidereal Time
01:45:50
Azimuth
202.65° SW
Elevation
40.654°
Doppler factor
1
Orbital elements
Apogee altitude
35,822.33 km
Perigee altitude
35,615.205 km
Semi-major axis
42,096.905 km
Eccentricity
0.00246
Inclination
0.5696°
RAAN
94.5146°
Arg. of periapsis
197.9396°
True anomaly
Unknown
Mean anomaly
67.295°
Eccentric anomaly
Unknown
Mean motion
0.25129 °/min
Orbital period
1,432.63 mins
BSTAR
0
Loading historical data...
61994 neighbors
Loading maneuver chart data...
Loading SW <> Apogee altitude chart data...
Loading historical data...
Loading historical data...
Loading historical data...
Loading historical data...
Loading historical data...
Loading historical data...
Loading historical data...

INTELSAT 33E DEB Visibility forecast

Observer location: undefined°, undefined°

Span
Click to sort rows by Start time (UTC) header in descending order
Start Az.
Max El. time (UTC)
Max El. Az.
Max El.
End time (UTC)
End Az.
1440 mins2025-05-20 16:51:55.573Z202.642° SW2025-05-21 04:32:55.573Z203.3° SW33.679°2025-05-21 16:51:55.573Z201.383° SSW
|